Weather in Buren-Khem

Russia / Tyva Republic     51°39′02″N   95°00′30″E
temp.,
°C
wind,
m/s
gust,
m/s
humid.,
%
clouds,
%
prec.,
mm/h
press.,
hPa
HPBL,
m
28 january, thu
thu2801:00−18e1298100 2.4 103554
04:00−18ene1198100 1.3 103339
07:00−18ese1198100 2.3 103321
10:00−17e1195100 0.9 1033209
13:00−15s1193100 1.6 1031266
16:00−16s1196100 0.2 103045
19:00−20ne1199100 0.2 103220
22:00−17ese119899 0.3 103220
29 january, fri
fri2901:00−17e1197100 0.9 103038
04:00−16sse1198100 0.9 102925
07:00−16e1297100 1.8 102932
10:00−14ese1295100 1.4 1028128
13:00−12se2295100 3.2 1025181
16:00−11se0194100 1.3 1022110
19:00−12sw1197100 3.1 102536
22:00−14nne1197100 0.8 102631
30 january, sat
sat3001:00−13nne129697 1.4 102830
04:00−14nne129189 0.3 102821
07:00−13ssw019795 0.8 102825
10:00−12wsw1396100 0.4 1027346
13:00−10wsw3694100 0.8 1024563
16:00−11wsw379372 0.1 1023590
19:00−14wnw339351 0.2 102644
22:00−16nw367723 0.0 1029152
31 january, sun
sun3101:00−20n447611 0.0 103432
04:00−21nne34730 0.0 103725
07:00−23nne33720 0.0 104024
10:00−21ne12730 0.0 104132
13:00−18sse11780 0.0 1040148
16:00−19se11873 0.0 104057
19:00−22ne22863 0.0 104420
22:00−22ne23800 0.0 104420
1 february, mon
mon101:00−21ne227827 0.0 104420
04:00−23ene227617 0.0 104220
07:00−23ene127950 0.0 104020
10:00−20e1184100 0.0 103842
13:00−18se1184100 0.0 1033130
16:00−18se0190100 0.0 103047
19:00−20nnw0184100 0.0 103120
22:00−23nne118685 0.0 103120